• In Hungary
  • List of Countries
  • For 7 days
  • Water Temperature
  • Satellite Maps
  • Weather Map
  • News
  • Weather Widgets
  • user-avatar
    Login

    Hourly Weather Lutovinovo

    Today, 15 October, Monday

    Time Temperature Precipitation Wind Pressure Humidity
    00:00 +11°C° 0 mm 3 mps 749 mmHg 91%
    01:00 +11°C° 0 mm 3 mps 749 mmHg 91%
    02:00 +10°C° 0 mm 3 mps 749 mmHg 91%
    03:00 +10°C° 0 mm 3 mps 749 mmHg 91%
    04:00 +10°C° 0 mm 3 mps 749 mmHg 91%
    05:00 +10°C° 0 mm 3 mps 749 mmHg 91%
    06:00 +9°C° 0 mm 3 mps 749 mmHg 90%
    07:00 +10°C° 0 mm 3 mps 749 mmHg 87%
    08:00 +12°C° 0 mm 2 mps 749 mmHg 84%
    09:00 +12°C° 0 mm 2 mps 749 mmHg 80%
    10:00 +13°C° 0 mm 3 mps 749 mmHg 74%
    11:00 +14°C° 0 mm 3 mps 749 mmHg 68%
    12:00 +17°C° 0 mm 3 mps 749 mmHg 62%
    13:00 +17°C° 0 mm 3 mps 749 mmHg 61%
    14:00 +18°C° 0 mm 3 mps 749 mmHg 60%
    15:00 +18°C° 0 mm 3 mps 749 mmHg 58%
    16:00 +17°C° 0 mm 3 mps 749 mmHg 64%
    17:00 +15°C° 0 mm 2 mps 749 mmHg 71%
    18:00 +14°C° 0 mm 2 mps 749 mmHg 77%
    19:00 +13°C° 0 mm 2 mps 749 mmHg 79%
    20:00 +12°C° 0 mm 2 mps 749 mmHg 81%
    21:00 +12°C° 0 mm 2 mps 749 mmHg 83%
    22:00 +10°C° 0 mm 2 mps 749 mmHg 84%
    23:00 +10°C° 0 mm 2 mps 749 mmHg 85%

    Tomorrow, 16 October, Tuesday

    Time Temperature Precipitation Wind Pressure Humidity
    00:00 +10°C° 0 mm 2 mps 749 mmHg 86%
    01:00 +9°C° 0 mm 2 mps 749 mmHg 87%
    02:00 +9°C° 0 mm 2 mps 749 mmHg 88%
    03:00 +9°C° 0 mm 2 mps 749 mmHg 89%
    04:00 +8°C° 0 mm 2 mps 749 mmHg 89%
    05:00 +8°C° 0 mm 2 mps 749 mmHg 89%
    06:00 +8°C° 0 mm 2 mps 749 mmHg 89%
    07:00 +8°C° 0 mm 2 mps 749 mmHg 85%
    08:00 +9°C° 0 mm 2 mps 749 mmHg 80%
    09:00 +10°C° 0 mm 2 mps 749 mmHg 76%
    10:00 +11°C° 0 mm 3 mps 749 mmHg 69%
    11:00 +12°C° 0 mm 3 mps 749 mmHg 63%
    12:00 +14°C° 0 mm 3 mps 749 mmHg 56%
    13:00 +16°C° 0 mm 3 mps 749 mmHg 55%
    14:00 +16°C° 0 mm 3 mps 748 mmHg 53%
    15:00 +17°C° 0 mm 3 mps 748 mmHg 51%
    16:00 +14°C° 0 mm 3 mps 748 mmHg 57%
    17:00 +13°C° 0 mm 3 mps 748 mmHg 62%
    18:00 +11°C° 0 mm 3 mps 748 mmHg 67%
    19:00 +11°C° 0 mm 3 mps 748 mmHg 68%
    20:00 +11°C° 0 mm 3 mps 748 mmHg 69%
    21:00 +10°C° 0 mm 3 mps 748 mmHg 70%
    22:00 +10°C° 0 mm 3 mps 748 mmHg 71%
    23:00 +9°C° 0 mm 3 mps 748 mmHg 71%

    Day after tomorrow, 17 October, Wednesday

    Time Temperature Precipitation Wind Pressure Humidity
    00:00 +9°C° 0 mm 3 mps 748 mmHg 72%
    01:00 +9°C° 0 mm 3 mps 748 mmHg 73%
    02:00 +8°C° 0 mm 3 mps 748 mmHg 75%
    03:00 +8°C° 0 mm 3 mps 748 mmHg 76%
    04:00 +8°C° 0 mm 3 mps 748 mmHg 78%
    05:00 +8°C° 0 mm 3 mps 748 mmHg 79%
    06:00 +7°C° 0 mm 3 mps 748 mmHg 80%
    07:00 +8°C° 0 mm 2 mps 748 mmHg 78%
    08:00 +9°C° 0 mm 2 mps 748 mmHg 76%
    09:00 +9°C° 0 mm 2 mps 748 mmHg 74%
    10:00 +12°C° 0 mm 2 mps 748 mmHg 69%
    11:00 +13°C° 0 mm 2 mps 748 mmHg 64%
    12:00 +15°C° 0 mm 2 mps 748 mmHg 58%
    13:00 +15°C° 0 mm 2 mps 748 mmHg 57%
    14:00 +16°C° 0 mm 2 mps 748 mmHg 56%
    15:00 +16°C° 0 mm 2 mps 748 mmHg 55%
    16:00 +15°C° 0 mm 1 mps 748 mmHg 60%
    17:00 +13°C° 0 mm 1 mps 748 mmHg 66%
    18:00 +12°C° 0 mm 1 mps 748 mmHg 72%
    19:00 +11°C° 0 mm 1 mps 748 mmHg 74%
    20:00 +11°C° 0 mm 1 mps 748 mmHg 77%
    21:00 +10°C° 0 mm 1 mps 748 mmHg 79%
    22:00 +10°C° 0 mm 1 mps 748 mmHg 81%
    23:00 +10°C° 0 mm 1 mps 748 mmHg 82%

    18 October, Thursday

    Time Temperature Precipitation Wind Pressure Humidity
    00:00 +10°C° 0 mm 1 mps 748 mmHg 84%
    01:00 +9°C° 0 mm 1 mps 748 mmHg 85%
    02:00 +9°C° 0 mm 1 mps 748 mmHg 85%
    03:00 +9°C° 0 mm 1 mps 748 mmHg 86%
    04:00 +9°C° 0 mm 1 mps 748 mmHg 86%
    05:00 +8°C° 0 mm 1 mps 748 mmHg 86%
    06:00 +8°C° 0 mm 1 mps 748 mmHg 87%
    07:00 +9°C° 0 mm 1 mps 748 mmHg 84%
    08:00 +10°C° 0 mm 1 mps 748 mmHg 81%
    09:00 +10°C° 0 mm 1 mps 748 mmHg 78%
    10:00 +12°C° 0 mm 1 mps 748 mmHg 72%
    11:00 +13°C° 0 mm 1 mps 748 mmHg 66%
    12:00 +15°C° 0 mm 2 mps 748 mmHg 61%
    13:00 +15°C° 0 mm 2 mps 748 mmHg 60%
    14:00 +16°C° 0 mm 2 mps 747 mmHg 59%
    15:00 +16°C° 0 mm 2 mps 747 mmHg 58%
    16:00 +15°C° 0 mm 2 mps 747 mmHg 63%
    17:00 +14°C° 0 mm 2 mps 747 mmHg 69%
    18:00 +13°C° 0 mm 2 mps 746 mmHg 75%
    19:00 +12°C° 0 mm 2 mps 746 mmHg 77%
    20:00 +12°C° 0 mm 2 mps 746 mmHg 79%
    21:00 +12°C° 0 mm 2 mps 746 mmHg 81%
    22:00 +10°C° 0 mm 2 mps 746 mmHg 82%
    23:00 +10°C° 0 mm 2 mps 746 mmHg 84%

    19 October, Friday

    Time Temperature Precipitation Wind Pressure Humidity
    00:00 +10°C° 0 mm 2 mps 746 mmHg 85%
    01:00 +10°C° 0 mm 2 mps 746 mmHg 86%
    02:00 +10°C° 0 mm 2 mps 746 mmHg 86%
    03:00 +9°C° 0 mm 2 mps 746 mmHg 87%
    04:00 +9°C° 0 mm 2 mps 746 mmHg 87%
    05:00 +9°C° 0 mm 2 mps 745 mmHg 87%
    06:00 +9°C° 0 mm 2 mps 745 mmHg 88%
    07:00 +9°C° 0 mm 2 mps 745 mmHg 85%
    08:00 +10°C° 0 mm 2 mps 745 mmHg 82%
    09:00 +12°C° 0 mm 2 mps 745 mmHg 79%
    10:00 +12°C° 0 mm 3 mps 745 mmHg 73%
    11:00 +13°C° 0 mm 3 mps 745 mmHg 68%
    12:00 +16°C° 0 mm 3 mps 744 mmHg 62%
    13:00 +16°C° 0 mm 3 mps 744 mmHg 60%
    14:00 +17°C° 0 mm 3 mps 744 mmHg 58%
    15:00 +17°C° 0 mm 3 mps 743 mmHg 56%
    16:00 +16°C° 0 mm 3 mps 743 mmHg 61%
    17:00 +14°C° 0 mm 3 mps 743 mmHg 66%
    18:00 +12°C° 0 mm 3 mps 743 mmHg 71%
    19:00 +12°C° 0 mm 3 mps 743 mmHg 72%
    20:00 +11°C° 0 mm 3 mps 743 mmHg 73%
    21:00 +11°C° 0 mm 3 mps 742 mmHg 74%
    22:00 +12°C° 0 mm 2 mps 742 mmHg 76%
    23:00 +10°C° 0 mm 2 mps 742 mmHg 77%

    20 October, Saturday

    Time Temperature Precipitation Wind Pressure Humidity
    00:00 +10°C° 0 mm 2 mps 742 mmHg 78%
    01:00 +10°C° 0 mm 2 mps 742 mmHg 79%
    02:00 +9°C° 0 mm 2 mps 742 mmHg 80%
    03:00 +10°C° 0 mm 1 mps 742 mmHg 81%
    04:00 +10°C° 0 mm 1 mps 742 mmHg 82%
    05:00 +10°C° 0 mm 1 mps 742 mmHg 83%
    06:00 +10°C° 0 mm 1 mps 741 mmHg 84%
    07:00 +10°C° 0 mm 1 mps 741 mmHg 83%
    08:00 +11°C° 0 mm 1 mps 741 mmHg 83%
    09:00 +11°C° 0 mm 1 mps 742 mmHg 82%
    10:00 +12°C° 0 mm 1 mps 742 mmHg 78%
    11:00 +13°C° 0 mm 1 mps 742 mmHg 75%
    12:00 +14°C° 0 mm 1 mps 742 mmHg 71%
    13:00 +14°C° 0 mm 1 mps 741 mmHg 70%
    14:00 +15°C° 0 mm 1 mps 741 mmHg 70%
    15:00 +15°C° 0 mm 1 mps 741 mmHg 69%
    16:00 +14°C° 0 mm 1 mps 741 mmHg 73%
    17:00 +13°C° 0 mm 1 mps 740 mmHg 78%
    18:00 +12°C° 0 mm 1 mps 740 mmHg 82%
    19:00 +12°C° 0 mm 1 mps 740 mmHg 84%
    20:00 +12°C° 0 mm 1 mps 740 mmHg 87%
    21:00 +11°C° 0 mm 1 mps 740 mmHg 89%
    22:00 +11°C° 0 mm 1 mps 740 mmHg 89%
    23:00 +11°C° 0 mm 1 mps 740 mmHg 90%
    Show more